Погода в Стригине

Россия / Смоленская область     54°26′43″N   32°38′36″E
темп.,
°C
ветер,
м/с
пор.,
м/с
влажн.,
%
обл.,
%
осадки,
мм/ч
давл.,
гПа
погр.,
м
16 января, вс
вс1600:00−2сз7149089 0.1 1010755
03:00−3сз61293100 0.3 1012847
06:00−3сз61292100 0.1 1012752
09:00−7зсз389699 0.2 1014136
12:00−4сз4685100 0.1 1015656
15:00−5з489470 0.1 1014339
18:00−4зюз598999 0.0 1013480
21:00−7юз5139645 0.0 1010258
17 января, пн
пн1700:00−6юз61593100 0.0 1007356
03:00−4юз81689100 0.0 1002598
06:00−3юз81696100 2.1 996710
09:00−2юз91695100 3.7 992712
12:00−1юз91796100 0.8 988814
15:000юз91797100 2.1 9841104
18:00−3зсз61386100 1.8 985798
21:00−5з5118824 1.8 987307
18 января, вт
вт1800:00−7зюз51195100 0.0 989246
03:00−6сз91793100 1.2 9911155
06:00−7ссз111992100 1.9 9961115
09:00−8ссз101892100 3.3 10011027
12:00−8ссз101786100 0.7 10061011
15:00−7с91686100 0.8 1010892
18:00−8ссз81588100 0.1 1014747
21:00−9ссз71589100 0.1 1017630
19 января, ср
ср1900:00−10ссз61291100 0.0 1019409
03:00−14сз499774 0.1 1021158
06:00−16сз3710097 0.0 102271
09:00−17зсз23100100 0.0 102237
12:00−10з249220 0.0 1020121
15:00−7юз349144 0.0 1018175
18:00−10ююз3797100 0.1 1018113
21:00−8ююз499796 0.2 1016175
20 января, чт
чт2000:00−6ю5996100 0.2 1014280
03:00−5ююз51195100 0.3 1013338
06:00−5ю61195100 0.1 1011351
09:00−5ю61395100 0.3 1010352
12:00−4ю71594100 0.3 1010484
15:00−4ю71596100 0.9 1008580
18:00−4ю81593100 0.8 1007633
21:00−4ю81593100 0.9 1006683